Location: Berg
(48.4333°N, 13.9167°E)
Time: 22:53:58
(UTC+00:00)

ARIANE 5 R/B - Pass Details

Date: 18 September 2020
Orbit: 620 x 657 km, 98.2° (Epoch: 23 October)

Event Time Altitude Azimuth Distance (km) Brightness Sun altitude
Exits shadow 19:37:43 52° 37° (NE) 785 2.9 -24.0°
Drops below altitude 10° 19:41:23 10° 354° (N) 2,003 5.7 -24.5°
Sets 19:43:36 0° 350° (N) 2,912 6.6 -24.8°
